Content
SEND FEEDBACK

Daily
Averages
Monthly
Summary
United States of America

NEVADA CITY, CALIFORNIA


Home > North America > United States > California
Elevation: 2934 feet     Latitude: 39 18N     Longitude: 121 00W

WEATHER
 
SELECT A DAY
Number of Records: 70,955;   Date Range: 9/21/11 - 12/16/14
 
SHARE

PRINT THIS DATA

[ ← Previous Day ]
WEATHER ALMANAC - MAY 4, 2013
[ Next Day → ]
[ °C ]   °F
Weather ElementAverageHighLow
Temperature69.2 °F77 °F (2:00 pm)62.6 °F (8:20 pm)
Dewpoint25.7 °F33.8 °F (5:20 pm)14 °F (1:00 am)
Humidity20.8 %32 % (8:20 pm)11 % (1:00 am)
Barometer29.75 in29.92 in (12:20 am)29.66 in (4:40 pm)
Wind Speed10.8 mph16.1 mph (1:20 am)
Wind Gust25.3 mph (1:00 am)
Weather ElementAverage
Visibility9.9 mi
Wind DirectionESE (121.6 °)

Weather ElementTotal
Precipitation---
Cooling Degree Days4.8 (Base 65)
Growing Degree Days19.8 (Base 50)
Averaged from 61 records on May 4, 2013
WEATHER CONDITIONS BREAKOUT
WIND DIRECTION BREAKOUT
WEATHER BY HOUR - MAY 4, 2013
[ °C ]   °F
Local TimeTemperatureDewpointHumidityBarometerVisibilityWind DirectionWind SpeedGust SpeedPrecipitationEventsConditions
12:20 AM71.6 °F15.8 °F12 %29.92 in10.0 miENE (60°)13.8 mph23.0 mphClear
12:40 AM71.6 °F15.8 °F12 %29.92 in10.0 miENE (60°)13.8 mph21.9 mphClear
1:00 AM71.6 °F14.0 °F11 %29.91 in10.0 miENE (70°)15.0 mph25.3 mphClear
1:20 AM71.6 °F14.0 °F11 %29.90 in10.0 miEast (80°)16.1 mph23.0 mphClear
1:40 AM71.6 °F14.0 °F11 %29.90 in10.0 miENE (70°)15.0 mph25.3 mphClear
2:00 AM71.6 °F14.0 °F11 %29.89 in10.0 miEast (90°)12.7 mph20.7 mphClear
2:20 AM69.8 °F15.8 °F13 %29.89 in10.0 miEast (80°)13.8 mph19.6 mphClear
2:40 AM68.0 °F15.8 °F13 %29.88 in10.0 miEast (90°)12.7 mph17.3 mphClear
3:00 AM68.0 °F15.8 °F13 %29.88 in10.0 miEast (80°)12.7 mph17.3 mphClear
3:20 AM68.0 °F15.8 °F13 %29.87 in10.0 miENE (70°)10.4 mph17.3 mphClear
3:40 AM68.0 °F15.8 °F13 %29.87 in10.0 miENE (70°)12.7 mph20.7 mphClear
4:00 AM68.0 °F15.8 °F13 %29.87 in10.0 miENE (70°)15.0 mph21.9 mphClear
4:20 AM68.0 °F15.8 °F13 %29.86 in10.0 miENE (70°)10.4 mph18.4 mphClear
4:40 AM68.0 °F15.8 °F13 %29.86 in10.0 miEast (80°)15.0 mph19.6 mphClear
5:00 AM66.2 °F15.8 °F14 %29.85 in10.0 miEast (80°)15.0 mph19.6 mphClear
5:20 AM66.2 °F15.8 °F14 %29.85 in10.0 miEast (90°)12.7 mph20.7 mphClear
5:40 AM66.2 °F15.8 °F14 %29.85 in10.0 miEast (90°)15.0 mphClear
6:00 AM66.2 °F17.6 °F15 %29.84 in10.0 miEast (80°)15.0 mph20.7 mphClear
6:20 AM66.2 °F17.6 °F15 %29.84 in10.0 miEast (80°)12.7 mphClear
6:40 AM66.2 °F17.6 °F15 %29.84 in10.0 miENE (70°)12.7 mph17.3 mphClear
7:00 AM66.2 °F19.4 °F17 %29.83 in10.0 miEast (100°)9.2 mph16.1 mphClear
7:15 AM66.2 °F21.2 °F18 %29.83 in10.0 miEast (90°)10.4 mph16.1 mphClear
11:00 AM73.4 °F23.0 °F15 %29.76 in10.0 miSE (130°)4.6 mphClear
11:20 AM75.2 °F26.6 °F17 %29.75 in10.0 miSW (220°)8.1 mphClear
11:40 AM75.2 °F32.0 °F21 %29.75 in6.0 miWest (280°)10.4 mphClear
12:00 PM73.4 °F30.2 °F20 %29.74 in10.0 miNorth (350°)4.6 mphClear
12:20 PM75.2 °F32.0 °F21 %29.73 in10.0 miWest (270°)5.8 mphPartly Cloudy
12:40 PM73.4 °F32.0 °F22 %29.72 in10.0 miWSW (250°)6.9 mphClear
1:00 PM75.2 °F32.0 °F21 %29.71 in10.0 miWNW (290°)11.5 mph16.1 mphClear
1:20 PM75.2 °F32.0 °F21 %29.71 in10.0 miWest (270°)6.9 mphClear
1:40 PM75.2 °F32.0 °F21 %29.70 in10.0 miWSW (250°)6.9 mph16.1 mphClear
2:00 PM77.0 °F32.0 °F19 %29.70 in10.0 miSW (230°)4.6 mphClear
2:20 PM77.0 °F32.0 °F19 %29.69 in10.0 miWest (260°)4.6 mphClear
2:40 PM77.0 °F32.0 °F19 %29.69 in10.0 miSSW (210°)6.9 mphClear
3:00 PM77.0 °F32.0 °F19 %29.68 in10.0 miSSW (200°)4.6 mphClear
3:20 PM77.0 °F26.6 °F16 %29.67 in10.0 miSSW (210°)8.1 mph16.1 mphClear
3:40 PM77.0 °F26.6 °F16 %29.67 in10.0 miWSW (240°)8.1 mph18.4 mphClear
4:00 PM75.2 °F24.8 °F15 %29.67 in10.0 miENE (60°)12.7 mph20.7 mphClear
4:20 PM71.6 °F32.0 °F23 %29.67 in10.0 miEast (90°)10.4 mph23.0 mphMostly Cloudy
4:40 PM71.6 °F32.0 °F23 %29.66 in10.0 miNE (50°)11.5 mph19.6 mphOvercast
5:00 PM68.0 °F32.0 °F26 %29.66 in10.0 miENE (70°)11.5 mphScattered Clouds
5:20 PM69.8 °F33.8 °F27 %29.66 in10.0 miENE (60°)10.4 mphPartly Cloudy
5:40 PM68.0 °F33.8 °F28 %29.66 in10.0 miENE (70°)11.5 mph17.3 mphPartly Cloudy
6:00 PM69.8 °F33.8 °F27 %29.66 in10.0 miENE (60°)15.0 mph19.6 mphPartly Cloudy
6:20 PM68.0 °F33.8 °F28 %29.66 in10.0 miEast (80°)15.0 mph21.9 mphPartly Cloudy
6:40 PM68.0 °F32.0 °F26 %29.67 in10.0 miENE (60°)10.4 mph18.4 mphPartly Cloudy
7:00 PM66.2 °F32.0 °F28 %29.67 in10.0 miENE (60°)10.4 mph23.0 mphPartly Cloudy
7:20 PM66.2 °F32.0 °F28 %29.66 in10.0 miENE (70°)11.5 mph19.6 mphClear
7:40 PM64.4 °F32.0 °F30 %29.66 in10.0 miEast (80°)15.0 mph21.9 mphClear
8:00 PM64.4 °F32.0 °F30 %29.66 in10.0 miEast (80°)13.8 mph19.6 mphClear
8:20 PM62.6 °F32.0 °F32 %29.66 in10.0 miEast (90°)13.8 mph23.0 mphClear
8:40 PM62.6 °F32.0 °F32 %29.66 in10.0 miEast (100°)12.7 mph20.7 mphClear
9:00 PM62.6 °F32.0 °F32 %29.66 in10.0 miEast (100°)10.4 mph18.4 mphClear
9:20 PM62.6 °F32.0 °F32 %29.67 in10.0 miESE (120°)8.1 mphClear
9:40 PM62.6 °F32.0 °F32 %29.66 in10.0 miESE (110°)11.5 mph17.3 mphClear
10:00 PM62.6 °F32.0 °F32 %29.66 in10.0 miEast (100°)10.4 mph18.4 mphClear
10:20 PM62.6 °F32.0 °F32 %29.66 in10.0 miESE (110°)10.4 mph16.1 mphClear
10:40 PM62.6 °F32.0 °F32 %29.66 in10.0 miESE (110°)8.1 mphClear
11:00 PM62.6 °F30.2 °F30 %29.66 in10.0 miEast (100°)8.1 mphClear
11:20 PM62.6 °F30.2 °F30 %29.66 in10.0 miESE (110°)5.8 mphClear
11:40 PM62.6 °F30.2 °F30 %29.66 in10.0 miEast (100°)8.1 mphClear
Hourly data recorded from KGOO, located miles away from Nevada City, California







STORIES FROM OUR PARTNERS